SCP
0 0 0 0 0 0 0 0 0 0 0 0 0 0 0 0 0 1 1 1 1 1 1 1 1 1 1 1 1 1 1 1 0 0 0 1 0 0 0 0 0 0 0 0
0 0 0 0 0 0 0 0 0 0 0 0 0 0 0 0 0 0 1 1 1 1 1 1 1 1 1 1 1 1 1 1 1 1 0 0 0 0 0 0 0 0 0 0
0 0 0 0 0 0 0 0 0 0 0 0 0 0 0 0 0 0 0 1 1 1 1 1 1 1 0 0 1 1 1 1 1 1 0 0 0 0 0 0 0 0 0 0
0 0 0 0 0 0 0 0 0 0 0 0 0 0 0 0 0 0 0 0 0 1 0 0 0 0 0 0 0 1 1 1 1 1 1 0 0 0 0 0 0 0 0 0
0 0 0 0 0 0 0 0 0 0 0 0 0 0 0 0 0 0 0 0 0 0 0 0 0 0 0 0 0 1 1 1 1 1 1 1 1 0 0 0 0 0 0 0
0 0 0 0 0 0 0 0 0 0 0 0 0 0 0 0 0 0 0 0 0 0 0 0 0 0 0 0 1 1 1 1 1 1 1 1 1 0 0 0 0 0 0 0
0 0 0 0 0 0 0 0 0 0 0 0 0 0 0 0 0 0 0 0 0 0 0 0 0 0 0 0 1 1 1 1 1 1 1 1 1 0 0 0 0 0 0 0
0 0 0 0 0 0 0 0 0 0 0 0 0 0 0 0 0 0 0 0 0 0 0 0 0 0 1 1 1 1 1 1 1 1 1 1 0 0 0 0 0 0 0 0
0 0 0 0 0 0 0 0 0 0 0 0 0 0 0 0 0 0 0 0 0 0 0 0 0 0 0 1 1 1 1 1 1 1 0 0 0 0 0 0 0 0 0 0
0 0 0 0 0 0 0 0 0 0 0 0 0 0 0 0 0 0 0 0 0 0 0 0 0 0 0 1 1 1 1 1 1 0 0 0 0 0 0 0 0 0 0 0
0 0 0 0 0 0 0 0 0 0 0 0 0 0 0 0 0 0 0 0 0 0 0 0 0 0 0 0 1 1 1 1 0 0 0 0 0 0 0 0 0 0 0 0
0 0 0 0 0 0 0 0 0 0 0 0 0 0 0 0 0 0 0 0 0 0 0 0 0 0 0 0 0 0 1 0 0 0 0 0 0 0 0 0 0 0 0 0
0 0 0 0 0 0 0 0 0 0 0 0 0 0 0 0 0 0 0 0 0 0 0 0 0 0 0 0 0 0 0 0 0 0 0 0 0 0 0 0 0 0 0 0
0 0 0 0 0 0 0 0 0 0 0 0 0 0 0 0 0 0 0 0 0 0 0 1 1 1 1 0 0 0 0 0 0 0 0 0 0 0 0 0 0 0 0 0
0 0 0 0 0 0 0 0 0 0 0 0 0 0 0 0 0 0 0 0 0 0 0 1 1 1 1 1 0 0 0 0 0 0 0 0 0 0 0 0 0 0 0 0
0 0 0 0 0 0 0 0 0 0 0 0 0 0 0 0 0 0 0 0 0 0 0 1 1 1 1 1 0 0 0 0 0 0 0 0 0 0 0 0 0 0 0 0
0 0 0 0 0 0 0 0 0 0 0 0 0 0 0 0 0 0 0 0 0 0 0 1 1 1 1 1 1 0 0 0 0 0 0 0 0 0 0 0 0 0 0 0
0 0 0 0 0 0 0 0 0 0 0 0 0 0 0 0 0 0 0 0 0 0 0 1 1 1 1 1 1 1 0 0 0 0 0 0 0 0 0 0 0 0 1 1
0 0 0 0 0 0 0 0 0 0 0 0 0 0 0 0 0 0 0 0 0 0 0 0 0 0 1 1 1 1 0 0 0 0 0 0 0 0 0 0 1 1 1 1
0 0 0 0 0 0 0 0 0 0 0 0 0 0 0 0 0 0 0 0 0 0 0 0 0 1 1 1 1 1 1 0 0 0 0 0 0 0 1 1 1 1 1 1
0 0 0 0 0 0 0 0 0 0 0 0 0 0 0 0 0 0 0 0 0 0 0 1 1 1 1 1 1 1 1 1 1 1 0 1 1 1 1 1 1 1 1 1
0 0 0 0 0 0 0 0 0 0 0 0 0 0 0 0 0 0 0 1 1 1 1 1 1 1 2 2 2 2 1 1 1 1 1 1 1 1 1 1 1 1 1 1
0 0 0 1 1 1 0 0 0 0 0 0 0 0 0 0 0 1 1 1 1 1 1 1 1 2 2 2 2 2 2 1 1 1 1 1 1 1 1 1 1 1 1 1
0 0 0 1 1 1 0 0 0 0 0 0 0 0 0 0 0 1 1 1 1 1 1 1 1 2 2 2 2 2 2 2 2 1 1 1 1 1 1 1 1 1 1 1
0 0 0 1 1 1 0 0 0 0 0 0 0 0 0 0 0 1 1 1 1 1 1 1 1 2 2 2 2 2 2 2 2 1 1 1 1 1 1 1 1 1 0 0
0 0 1 1 1 1 0 0 0 0 0 0 0 0 0 0 0 1 1 1 1 1 1 1 1 1 1 2 2 2 2 2 2 1 1 1 0 0 1 1 1 0 0 0
Wind_Speed
13 11 11 10 8 9 10 7 7 7 5 4 2 7 9 9 10 8 9 11 10 9 10 9 9 9 9 8 7 6 6 5 2 1 1 1 1 0 0 2 4 3 2 3
14 11 12 10 8 8 9 9 7 4 4 3 2 3 4 7 7 5 7 10 11 10 10 9 9 9 10 9 7 7 6 6 3 2 1 1 0 1 1 1 2 2 1 1
13 8 5 9 9 8 7 8 9 7 3 1 2 2 1 2 3 4 6 10 12 12 11 11 10 10 10 9 8 7 7 6 4 3 1 1 0 2 1 1 1 2 1 1
10 8 7 9 8 8 7 6 9 9 5 2 2 1 2 6 6 6 7 9 12 12 12 12 12 11 11 10 9 7 7 5 4 3 1 2 2 2 2 1 0 1 1 2
12 9 9 10 8 8 8 7 8 10 8 4 3 1 4 7 7 9 10 11 12 13 13 13 13 11 10 10 10 8 7 6 4 3 2 2 3 2 2 3 3 2 3 3
13 11 9 10 8 7 7 5 7 8 6 5 8 5 5 8 11 12 12 12 11 13 13 13 12 10 9 9 8 9 8 6 5 4 3 2 2 2 3 4 4 3 2 2
9 8 7 10 11 6 7 5 2 2 1 8 10 4 7 9 9 11 13 14 13 13 12 12 11 11 9 8 8 8 9 7 6 5 4 2 1 2 4 5 4 2 2 2
8 5 4 9 11 7 7 7 5 6 4 3 2 3 9 10 9 9 12 13 13 13 11 11 10 9 9 9 8 8 9 7 6 5 3 2 1 2 3 2 3 3 3 3
7 5 7 11 8 8 7 6 9 9 9 3 1 4 11 9 10 9 11 12 13 13 13 12 12 10 10 9 8 7 8 6 5 3 3 3 3 3 3 2 3 3 2 4
8 9 8 7 7 7 7 9 6 6 5 3 4 5 3 8 10 10 10 11 12 12 12 12 10 10 9 8 7 7 7 6 4 3 4 3 3 3 3 3 3 3 3 4
7 8 9 5 5 8 7 8 6 6 6 6 2 1 6 6 8 10 12 11 11 12 12 11 9 9 9 9 9 7 7 6 5 4 3 1 2 2 2 3 4 4 4 4
5 7 8 6 7 11 10 9 6 5 6 6 3 1 4 4 6 8 10 11 11 10 10 11 11 10 9 8 9 8 8 7 6 5 4 3 3 3 4 5 4 3 4 4
5 5 8 6 9 12 12 14 11 8 6 6 4 1 1 2 2 5 7 8 9 8 8 9 10 10 8 7 7 8 7 7 6 6 5 5 4 4 4 4 4 4 4 4
6 7 10 10 6 7 10 15 13 10 7 5 5 3 4 3 2 4 6 6 8 9 8 9 9 8 7 7 6 6 6 5 6 5 4 4 4 4 4 4 4 4 4 5
7 10 11 12 10 11 15 14 11 9 8 8 6 5 3 2 2 3 4 6 6 8 10 9 9 9 8 7 7 6 5 5 4 4 4 4 4 3 3 4 4 4 5 6
5 8 12 15 15 14 15 12 11 10 9 9 6 2 3 3 4 3 2 3 5 6 8 10 10 10 9 8 8 7 6 6 5 5 4 4 3 4 4 4 5 5 5 5
7 8 12 13 15 15 13 10 10 9 6 6 4 1 3 2 3 2 2 2 2 4 6 9 10 9 9 8 8 7 7 6 6 6 5 5 4 4 4 5 4 4 5 5
8 9 8 12 13 15 10 5 4 4 4 4 3 1 2 3 3 2 3 3 2 3 5 7 9 9 10 9 9 7 8 7 7 7 7 6 5 5 4 4 5 4 4 5
5 6 10 11 13 13 9 6 9 6 4 5 3 5 4 3 0 1 5 5 4 3 4 6 7 9 9 10 10 9 8 8 8 8 7 6 5 5 4 5 5 4 4 5
4 6 10 12 14 13 3 3 4 6 2 6 8 8 7 6 3 3 5 4 4 4 4 5 7 7 8 8 9 9 8 8 8 7 6 5 4 5 5 5 5 5 5 6
7 10 12 12 13 6 5 4 3 0 1 6 6 5 5 6 5 2 1 2 3 3 4 5 5 5 6 7 7 7 7 7 6 5 5 5 5 5 6 6 5 5 6 7
10 10 9 6 8 2 7 6 4 1 4 6 6 5 5 5 7 5 3 3 2 3 4 5 4 5 5 6 6 6 6 5 4 4 5 5 5 6 6 5 5 6 7 7
7 6 4 1 2 4 4 4 1 0 2 5 7 8 7 7 7 6 5 4 2 1 2 3 3 4 5 5 5 6 5 4 4 5 5 5 5 5 5 6 7 7 7 7
5 5 6 1 5 7 6 6 3 4 6 6 8 9 9 10 10 9 8 6 4 2 1 2 3 3 4 5 6 5 4 4 4 5 5 5 6 7 7 7 7 7 7 6
5 3 3 0 5 6 8 7 7 7 7 9 10 11 12 12 12 11 9 8 7 5 4 2 1 1 2 3 3 4 3 4 5 5 5 6 8 8 7 8 8 8 7 7
5 4 3 2 4 5 5 4 6 8 10 11 11 12 12 13 12 11 10 9 8 7 6 5 3 2 2 1 2 3 3 3 4 5 6 7 7 7 7 6 7 11 13 12
Wind_Direction
254 248 275 297 308 313 306 321 320 303 290 291 181 150 174 204 223 206 173 150 153 149 139 138 140 140 136 136 140 143 136 137 151 141 147 120 109 83 126 128 108 91 40 21
259 256 265 293 302 298 301 312 305 283 260 292 47 106 167 201 219 199 160 150 152 147 147 149 154 153 149 150 151 148 153 157 171 138 116 150 80 286 280 83 126 130 97 1
279 286 286 291 293 299 308 303 302 293 264 22 58 348 103 242 244 226 175 159 156 159 161 163 167 163 159 162 168 171 166 163 170 157 197 264 176 255 266 87 127 109 56 314
289 292 282 283 292 294 298 294 303 312 303 286 208 234 225 219 225 213 194 172 166 164 167 172 172 174 172 173 175 167 164 165 161 180 224 266 271 293 320 311 83 86 292 266
283 281 283 283 289 297 301 312 335 346 343 329 264 193 203 190 213 211 193 183 174 168 173 175 177 177 178 180 177 169 161 161 167 192 229 258 294 325 352 6 354 336 271 242
282 294 297 304 296 279 298 322 9 7 4 305 248 189 181 177 197 193 180 181 181 173 174 176 177 173 179 181 173 168 160 165 175 196 224 231 279 318 323 318 299 289 282 264
273 290 296 291 284 291 292 294 339 348 223 247 247 193 140 158 166 165 168 174 176 174 173 174 176 173 178 180 174 165 159 164 176 193 210 221 261 294 269 260 279 300 309 316
293 295 245 250 262 271 268 280 281 286 274 231 251 127 127 127 128 143 156 164 170 174 173 173 177 178 179 179 172 162 155 162 177 192 186 175 230 268 286 359 355 326 312 317
285 279 240 247 261 281 287 286 292 294 310 340 34 103 119 130 138 148 155 163 172 176 176 179 180 181 179 175 162 156 148 156 174 182 158 188 214 243 295 321 281 281 306 304
283 293 277 252 252 251 271 295 302 305 320 326 48 8 143 160 162 163 166 169 173 177 179 179 176 176 165 153 141 139 140 149 162 182 195 212 191 215 237 255 278 292 289 288
295 296 294 303 317 314 272 262 282 304 313 322 21 225 198 178 172 169 174 177 179 182 178 172 164 152 141 142 145 144 145 155 173 197 193 210 227 254 265 261 260 263 267 274
306 298 307 328 351 344 313 294 273 275 297 301 318 119 130 153 168 162 171 174 177 178 174 164 152 143 149 158 159 160 166 173 182 190 183 197 212 230 245 261 268 273 271 269
333 310 296 316 5 359 321 300 287 278 278 287 304 144 256 261 146 148 153 156 158 161 162 153 145 149 157 164 164 166 174 180 183 180 181 196 210 227 240 255 266 269 270 273
302 282 285 288 247 211 247 263 270 273 274 290 300 282 233 241 184 152 145 150 160 160 158 155 147 153 160 161 159 166 181 180 182 179 190 202 213 227 241 252 259 264 268 272
295 284 289 289 266 233 241 247 250 258 268 274 266 254 252 230 129 125 149 161 168 162 163 161 159 158 162 164 165 177 182 177 180 182 206 215 217 225 238 248 254 257 262 272
273 285 293 290 285 277 274 273 269 264 267 275 274 270 90 92 103 104 124 171 174 174 174 169 167 165 170 173 178 182 183 177 173 192 215 220 223 234 242 248 251 255 259 268
266 268 276 282 292 293 282 283 281 280 280 289 298 67 107 89 82 99 143 206 207 187 179 172 171 170 171 176 179 181 181 178 182 194 213 222 225 234 243 260 266 269 271 272
257 265 273 277 280 275 281 295 299 286 286 269 242 183 137 124 118 146 160 171 195 201 180 170 172 171 173 177 180 182 185 184 192 200 210 219 225 234 239 249 259 262 268 273
257 260 267 273 271 267 279 344 350 329 319 336 19 44 43 66 256 198 147 152 174 193 173 164 176 178 175 178 178 179 192 193 199 207 209 216 222 232 241 249 255 261 263 267
266 245 253 261 270 279 314 68 1 345 320 12 41 37 8 345 326 79 124 158 172 169 157 162 176 173 168 174 173 178 194 200 208 211 208 210 216 228 242 250 255 262 263 267
254 243 245 258 271 284 47 84 72 317 9 359 30 32 5 346 331 9 142 151 138 141 154 162 170 167 164 165 167 183 199 207 209 210 208 209 215 223 234 240 242 250 259 265
243 244 239 253 277 326 32 49 61 15 327 342 356 5 6 332 324 348 5 65 114 143 164 170 165 156 152 157 168 190 207 209 204 209 217 220 220 236 247 238 243 245 250 259
271 288 288 188 162 122 67 81 131 285 350 1 359 357 350 343 353 0 19 49 71 132 152 157 160 158 157 162 174 201 209 207 214 220 225 229 235 235 243 249 252 252 248 252
300 322 306 21 111 130 139 136 121 67 37 21 17 14 12 11 9 13 25 29 38 41 72 112 146 173 180 182 193 209 208 203 217 227 229 233 239 242 241 238 248 253 254 256
298 270 268 141 113 96 62 53 55 57 48 39 33 30 26 24 21 21 30 25 24 26 27 52 84 178 196 190 202 206 212 209 220 232 241 247 248 248 246 243 241 244 244 244
325 336 318 86 101 97 88 65 59 62 58 52 45 43 39 34 30 29 30 27 22 24 22 19 10 340 307 252 226 215 211 218 231 246 250 256 259 258 256 256 258 240 237 239